Roanoke, VA

2:14 AM EST on November 17, 2019 (GMT -0500)
Roanoke Regional-Woodrum

Weather History for KROA - September, 2019

Change the Weather History Date:

Friday, September 13, 2019

  Actual Average Record
Temperature  
Mean Temperature 72 °F 69 °F  
Max Temperature 76 °F 80 °F 97 °F (1936)
Min Temperature 67 °F 59 °F 39 °F (1917)
Degree Days  
Heating Degree Days 0 1  
Month to date heating degree days 0 5  
Since 1 July heating degree days 0 6  
Cooling Degree Days 7 5  
Month to date cooling degree days 162 86  
Year to date cooling degree days 1525 1133  
Growing Degree Days 22 (Base 50)    
Moisture  
Dew Point 69 °F    
Average Humidity 88    
Maximum Humidity 93    
Minimum Humidity 82    
Precipitation  
Precipitation T in 0.14 in 1.50 in (1945)
Month to date precipitation 0.65 1.75  
Year to date precipitation 31.35 29.88  
Snow  
Snow 0.00 in - - ()
Month to date snowfall 0.0  
Since 1 July snowfall T  
Since 1 September snowfall 0.0  
Snow Depth 0.00 in    
Sea Level Pressure  
Sea Level Pressure 30.28 in    
Wind  
Wind Speed 5 mph (SE)    
Max Wind Speed 13 mph    
Max Gust Speed 17 mph    
Visibility 9 miles    
Events Rain    
T = Trace of Precipitation, MM = Missing Value Source: NWS Daily Summary

Daily Weather History Graph

Daily Weather History Graph

Search for Another Location

Airport or City:

Astronomy

Sep. 13, 2019 Rise Set
Actual Time 7:00 AM EDT 7:31 PM EDT
Civil Twilight 6:33 AM EDT 7:57 PM EDT
Nautical Twilight 6:03 AM EDT 8:28 PM EDT
Astronomical Twilight 5:31 AM EDT 8:59 PM EDT
Moon 7:42 PM EDT (9/13) 6:17 AM EDT (9/13)
Length of Visible Light 13h 23m
Length of Day
12h 30m
Full, 100% of the Moon is Illuminated
Sep 13
Full
Sep 14
Full
Sep 21
Last Quarter
Sep 28
New
Oct 5
First Quarter

Hourly Weather History & Observations

Time (EDT) Temp. Dew Point Humidity Pressure Visibility Wind Dir Wind Speed Gust Speed Precip Events Conditions
12:54 AM 73.9 °F 69.1 °F 85% 30.14 in 10.0 mi Calm Calm - N/A   Scattered Clouds
1:54 AM 72.0 °F 68.0 °F 87% 30.15 in 10.0 mi NNW 3.5 mph - N/A   Partly Cloudy
2:54 AM 73.0 °F 68.0 °F 84% 30.16 in 10.0 mi South 3.5 mph - N/A   Mostly Cloudy
3:54 AM 71.1 °F 68.0 °F 90% 30.17 in 10.0 mi WNW 3.5 mph - N/A   Clear
4:54 AM 72.0 °F 66.9 °F 84% 30.19 in 10.0 mi Calm Calm - N/A   Clear
5:54 AM 72.0 °F 66.9 °F 84% 30.22 in 10.0 mi Variable 4.6 mph - N/A   Partly Cloudy
6:54 AM 71.1 °F 66.9 °F 87% 30.25 in 10.0 mi Calm Calm - N/A   Clear
7:40 AM 72.0 °F 68.0 °F 87% 30.30 in 10.0 mi SE 6.9 mph - N/A   Mostly Cloudy
7:54 AM 72.0 °F 68.0 °F 87% 30.27 in 10.0 mi ESE 3.5 mph - N/A   Overcast
8:54 AM 73.0 °F 69.1 °F 87% 30.27 in 10.0 mi Calm Calm - N/A   Overcast
9:54 AM 73.0 °F 69.1 °F 87% 30.29 in 10.0 mi South 3.5 mph - N/A   Overcast
10:54 AM 75.0 °F 69.1 °F 82% 30.30 in 10.0 mi Variable 3.5 mph - N/A   Overcast
11:54 AM 75.0 °F 69.1 °F 82% 30.30 in 10.0 mi SE 4.6 mph - 0.00 in   Overcast
12:34 PM 73.9 °F 71.1 °F 91% 30.33 in 4.0 mi SE 5.8 mph - 0.00 in Rain Light Rain
12:54 PM 75.0 °F 71.1 °F 87% 30.31 in 10.0 mi SE 6.9 mph - 0.00 in   Overcast
1:11 PM 75.9 °F 71.1 °F 85% 30.33 in 10.0 mi ESE 5.8 mph - N/A   Overcast
1:54 PM 75.0 °F 71.1 °F 87% 30.30 in 6.0 mi SE 6.9 mph - 0.00 in   Overcast
2:18 PM 73.9 °F 71.1 °F 91% 30.33 in 6.0 mi SE 6.9 mph - 0.00 in Rain Light Rain
2:36 PM 75.0 °F 71.1 °F 87% 30.32 in 10.0 mi ESE 6.9 mph - 0.00 in   Overcast
2:49 PM 73.4 °F 71.6 °F 94% 30.32 in 10.0 mi SE 8.1 mph - 0.00 in   Overcast
2:54 PM 73.9 °F 71.1 °F 91% 30.29 in 10.0 mi East 9.2 mph - 0.00 in   Overcast
3:54 PM 73.0 °F 70.0 °F 90% 30.29 in 9.0 mi ESE 5.8 mph - 0.00 in   Overcast
4:54 PM 73.0 °F 69.1 °F 87% 30.28 in 10.0 mi ESE 11.5 mph - 0.00 in   Overcast
5:54 PM 72.0 °F 68.0 °F 87% 30.29 in 10.0 mi SE 9.2 mph - N/A   Overcast
6:54 PM 71.1 °F 66.9 °F 87% 30.31 in 10.0 mi Calm Calm - N/A   Overcast
7:54 PM 70.0 °F 66.9 °F 90% 30.32 in 10.0 mi SE 4.6 mph - 0.00 in   Overcast
8:54 PM 70.0 °F 66.9 °F 90% 30.33 in 10.0 mi East 5.8 mph - 0.00 in   Overcast
9:54 PM 68.0 °F 66.9 °F 96% 30.34 in 6.0 mi ESE 8.1 mph - N/A   Overcast
10:24 PM 69.1 °F 66.9 °F 93% 30.37 in 7.0 mi ESE 8.1 mph - N/A   Overcast
10:54 PM 68.0 °F 66.9 °F 96% 30.34 in 2.5 mi ESE 8.1 mph - N/A   Overcast
11:26 PM 68.0 °F 66.9 °F 96% 30.36 in 2.5 mi ESE 9.2 mph - N/A   Overcast
11:54 PM 68.0 °F 66.9 °F 96% 30.33 in 4.0 mi East 10.4 mph - N/A   Overcast